星链-5729 (STARLINK-5729 )

导读 | 星芒AI

STARLINK-5729 是 SpaceX Starlink 卫星互联网项目中的一颗低轨通信卫星。它属于 Starlink 群体部署计划的一部分,旨在为全球用户提供高速、低延迟的互联网服务。该卫星运行在约 550 公里的近地轨道上,采用先进的推进系统和激光通信技术,以提高网络效率和稳定性。STARLINK-5729 的发射和运行有助于扩大 Starlink 在偏远和网络基础设施薄弱地区的覆盖范围,推动全球互联网接入的普及。

基本信息
目录编号:
55596
目录名称:
STARLINK-5729
国际标识:
2023-020AD
轨道中心:
EARTH
卫星名称:
星链-5729
卫星全名:
星链-5729 (STARLINK-5729 )
卫星状态:
在轨 (已飞行1043 天)
发射日期:
2023-02-12 UTC
国别 :
美国 (US)
星等 :
--
轨道信息
数据来源 国际轨道数据 AOE轨道数据
星历时间 2025-12-21T05:51:09+0800
16小时前
查看轨道信息
2025-12-18T05:00:00+0800
3天前
查看轨道信息
半长轴 6937.222km 6937.223km
偏心率 0.0001348 0.0001081
轨道倾角 43.003° 43.003°
近地点辐角 272.894° 264.160°
升交点赤经 72.293° 88.792°
平近点角 87.175° 217.564°
近地点 558.149km 558.338km
远地点 560.021km 559.838km
周期 95.838分钟 95.838分钟
每日圈数 15.025343 15.025339
详细信息
固有亮度:
5
最大亮度:
2.5
卫星平台:
Starlink v1.5
覆盖范围:
全球
运营商:
太空探索技术公司
运营商所在国:
美国
制造商(研发单位):
太空探索技术公司
制造商所在国:
美国
使用方式:
暂无
卫星简介
星链(Starlink)计划是由太空探索技术公司(SpaceX)提出的一个巨型低轨卫星互联网星座项目,计划在2019年至2024年间在太空搭建由约1.2万颗卫星组成的“星链”网络,其中1584颗将部署在地球上空550千米处的近地轨道,并从2020年开始工作。该卫星仍在工作。
2D轨道图
3D轨道图
轨道高度分析图
轨道倾角分析图
轨道综合分析图
查看轨道综合分析图